Reflectivity
1 -10 -11 -13 -20 -20 -20 -20 -20 -20 -20 -20 -20 -20 -20 -20 -20 -20 -20 -20 -20 -20 -20 -20 -20 -20 -20 -20 -20 -20 -20 -20 11 12 -8 -18 -18 -6 0 -10 -20 -20 -20 -20
-0 -19 -20 -20 -20 -20 -19 -8 -20 -20 -20 -20 -20 -20 -20 -20 -20 -20 -20 -20 -20 -20 -20 -20 -20 -20 -20 -20 -20 -20 -20 -20 -20 19 -3 -19 -20 -20 -19 1 -20 -20 -20 -20
-10 -20 -20 -20 -20 -16 -20 -20 -13 -20 -20 -20 -3 -20 -20 -20 -20 -20 -20 -20 -20 -20 -20 -20 -20 -20 -20 -20 -20 -20 -20 -20 -20 -19 20 12 1 20 19 12 -11 -20 -20 -20
14 -9 -17 1 -20 -9 6 -17 -16 -1 7 9 -10 -15 -20 -20 -20 -20 -20 -20 -20 -20 -20 -20 -20 -20 -20 -20 -20 -20 -20 -20 -20 -20 -19 1 11 -7 -12 -18 -18 -20 -20 -20
7 -2 16 19 -20 -14 -5 -20 -20 7 -2 19 3 -8 -20 -20 -20 -20 -20 -20 -20 -20 -20 -20 -20 -20 -20 -20 -20 -20 -20 -20 -20 -20 -20 -20 6 -9 -20 -20 14 13 -20 -20
23 -13 9 -5 8 8 -17 2 25 21 15 25 -7 13 -20 -20 -20 -20 -20 -20 -20 -20 -20 -20 -20 -20 -20 -20 -20 -20 -20 -20 -20 -20 -20 -20 -17 -20 3 -20 11 16 3 -20
13 4 -20 2 7 20 22 28 19 22 31 22 -13 12 -20 -20 -20 -20 -20 -20 -20 -20 -20 -20 -20 -20 -20 -20 -20 -20 -20 -20 -20 -20 -20 -20 -20 -19 -20 -20 0 20 17 -15
14 12 -9 7 6 -3 -3 16 25 21 11 10 -20 28 -20 -20 -20 -20 -20 -20 -20 -20 -20 -20 -20 -20 -20 -20 -20 -20 -20 -20 -20 -20 -20 -20 -20 -20 -20 -20 0 -10 7 5
30 31 15 -20 -8 7 7 22 21 23 22 26 -1 -17 -20 -20 -20 -20 -20 -20 -20 -20 -20 -20 -20 -20 -20 -20 -20 -20 -20 -20 -20 -20 -20 -20 -20 -18 -17 -20 -16 -20 6 -3
20 22 35 33 -2 -1 12 21 26 40 25 27 35 3 -17 -20 -20 -20 -20 -20 -20 -20 -20 -20 -20 -20 -20 -20 -20 -20 -20 -20 -20 -20 -20 -20 -12 -20 5 12 9 10 4 4
37 24 23 36 36 25 29 30 22 19 32 29 23 29 28 24 6 -20 -20 -20 -20 -20 -20 -20 -20 -20 -20 -20 -20 -20 -20 -20 -20 -4 -4 3 -7 5 8 4 7 22 11 0
16 20 15 19 30 29 31 24 29 30 21 17 22 25 14 0 24 19 3 -20 -20 -20 -20 -20 -20 -20 -20 -20 -20 -20 -20 -20 -20 -19 20 17 14 11 13 7 -3 5 -8 16
34 13 13 15 10 20 13 19 27 24 24 17 15 19 22 14 6 6 -9 -20 -20 -20 -20 -20 -20 -20 -20 -20 -20 -20 -20 -16 -20 -20 -20 2 19 20 25 15 4 29 7 -0
8 17 4 -10 -16 -11 -2 14 17 14 15 18 -2 13 18 -13 -5 -1 -20 -20 -20 -20 -20 -20 -20 -20 -20 -20 -20 -20 -20 -20 -20 -20 13 -13 -20 -15 20 23 23 16 25 23
9 2 13 -3 4 4 -20 -15 17 15 15 17 -20 -20 -19 -20 -20 -20 -20 -20 -20 -13 -12 -20 -20 -20 -20 -20 -20 -20 -20 -20 -20 -20 -20 -7 -19 -5 -0 18 7 8 31 10
-20 -20 -20 -20 -20 -4 5 -20 -20 -6 7 -17 -15 -7 -10 -20 -20 -20 -20 -20 -20 -20 -20 -14 -20 -20 -20 -20 -20 -20 3 -20 -17 -20 -9 14 26 15 14 27 21 25 13 18
1 -18 -20 -20 -20 -20 -20 -20 -20 -20 -20 -20 -20 -20 -20 -20 -18 -13 -17 -20 -20 -20 -20 -20 -20 -20 -20 -20 -20 -8 3 -20 5 -20 -12 11 -4 -19 -16 21 26 22 25 24
-20 -4 -7 -5 -7 -17 -20 -20 -20 -20 -20 -20 -20 -20 -20 -20 -20 -20 -20 -20 -20 -20 -20 -20 -20 -20 -20 -20 -20 -7 -18 -18 4 -12 -20 -20 -20 -20 -16 -20 -15 -13 18 36
-20 -9 -20 -20 2 -11 -20 -20 -20 -20 -20 -20 -20 -20 -20 -20 -20 -20 -20 -20 -20 -20 -20 -20 -20 -20 -20 -20 -20 5 6 1 23 -18 -17 -7 -20 -13 14 5 -12 3 27 34
-1 -12 -13 -20 5 -9 -20 -20 -20 -20 -20 -20 -20 -20 -20 -20 -20 -20 -20 -20 -20 -20 -20 -20 -20 -20 -20 -20 -20 7 3 1 14 12 -20 -20 -10 10 -10 -11 8 25 32 26
1 5 -0 -20 -7 -20 -20 -20 -20 -20 -20 -20 -20 -20 -20 -20 -20 -20 -20 -20 -20 -20 -20 -20 -20 2 -20 -20 -20 20 -1 10 19 20 8 -20 -14 10 8 5 15 16 18 18
-20 -20 -20 -14 -1 -20 -20 -20 -20 -20 -20 -20 -20 -20 -20 -20 -20 -20 -20 -20 -20 -20 -20 -20 -20 -20 -20 -20 -20 18 -1 35 10 22 36 -12 1 11 -4 4 10 9 11 21
-20 -20 -20 -20 -20 -20 -20 -20 -20 -20 -20 -20 -20 -20 -20 -20 -20 -20 -20 -20 -20 -20 -20 -20 -20 -20 -20 -20 -20 13 -19 27 15 31 -3 -17 -20 -4 8 11 19 6 -20 -11
-20 -20 -20 -20 -20 -20 -20 -20 -20 -20 -20 -20 -20 -20 -20 -20 -20 -20 -20 -20 -20 -20 -20 -20 -20 -20 -20 -19 8 -20 -13 25 28 27 11 -20 -20 -16 -20 -20 -20 -20 -20 -20
-20 -20 -20 -20 -20 -20 -20 -20 -20 -20 -20 -20 -20 -20 -20 -20 -20 -20 -20 -20 -20 -20 -20 14 10 16 28 -18 19 8 13 24 20 -2 -11 -4 -20 -18 -20 -9 -15 -6 -15 -17
-20 -20 -20 -20 -20 -20 -20 -20 -20 -20 -20 -20 -20 -20 -20 -20 -20 -20 -20 -20 -20 -13 23 25 36 32 22 -4 9 13 34 33 5 9 -20 -17 -11 -13 -7 -19 -7 13 -13 -20
Wind_Speed
12 10 18 18 24 21 14 15 16 6 9 18 20 34 20 17 14 12 14 16 16 17 18 12 12 16 18 17 18 20 22 23 16 13 14 14 15 14 12 13 17 18 15 16
7 26 16 19 19 21 24 24 23 20 12 9 20 41 18 13 20 17 17 17 19 15 14 10 8 10 15 19 21 21 23 23 21 16 16 14 15 14 13 11 13 15 16 17
24 24 20 18 18 22 24 27 18 20 13 18 18 37 23 14 19 19 15 19 16 16 13 7 4 6 8 14 18 20 24 24 23 24 13 11 10 8 9 12 13 16 19 19
23 21 27 24 30 21 24 20 23 20 12 13 15 23 19 12 12 8 6 10 5 7 6 7 6 6 7 7 9 16 19 22 23 23 18 22 17 15 14 16 16 17 22 21
30 19 23 31 37 17 29 14 18 19 20 16 19 11 6 3 4 3 7 8 6 5 5 7 8 6 8 8 7 10 16 19 21 23 22 19 20 16 12 12 17 18 18 21
28 17 19 23 23 26 28 23 16 19 17 16 29 18 30 19 18 4 5 7 6 6 6 6 6 7 5 7 8 8 13 18 21 22 25 25 25 21 15 16 15 16 15 16
28 34 30 21 17 15 20 20 13 13 13 15 14 15 24 6 6 7 9 6 7 8 8 9 11 12 12 9 7 10 9 16 20 24 24 26 26 25 24 20 17 17 14 14
18 17 32 21 33 26 22 23 13 16 13 12 15 11 12 10 12 11 7 4 3 7 7 7 7 7 7 11 10 7 10 12 17 23 26 24 26 17 19 20 16 16 16 17
7 9 6 14 8 24 24 17 27 26 20 2 7 1 6 8 8 7 7 9 10 8 8 8 7 7 8 10 12 10 10 13 15 20 21 23 22 23 20 21 17 15 15 13
3 3 4 7 6 8 3 1 9 7 13 12 10 9 7 4 4 5 9 8 10 12 14 14 10 10 6 7 10 12 10 10 13 14 16 17 19 20 19 16 18 18 15 15
3 3 1 3 4 4 2 2 3 1 1 2 1 2 4 8 3 4 4 5 6 7 8 10 13 12 10 6 7 10 12 13 8 7 11 15 15 17 16 16 17 15 15 15
5 1 2 3 4 5 2 3 2 2 1 3 2 5 1 5 1 2 5 5 6 9 9 10 11 11 12 8 7 10 12 11 10 6 7 12 13 15 15 16 13 16 16 16
4 2 1 4 2 2 1 3 3 3 0 4 4 4 2 4 3 5 6 6 5 8 12 14 14 11 8 12 8 6 6 9 10 6 5 4 6 8 13 14 14 16 18 19
4 3 2 2 3 4 2 2 6 5 3 4 5 2 7 4 7 7 7 7 9 9 9 11 13 14 13 11 10 7 4 5 7 5 5 5 4 7 10 10 13 15 16 16
2 3 1 4 7 5 3 6 4 10 7 7 3 6 4 4 6 5 6 9 12 13 14 13 12 12 15 15 10 7 4 4 3 4 2 1 4 4 1 5 12 14 15 13
2 4 1 4 7 10 12 13 14 12 12 8 11 16 3 2 4 5 5 7 12 15 15 14 14 13 14 15 12 7 5 3 1 2 2 2 5 6 6 5 2 8 8 9
2 1 1 5 0 2 4 12 14 11 10 9 11 11 3 4 7 6 8 9 13 13 14 16 15 15 14 14 14 10 5 3 2 2 4 1 1 3 7 7 7 7 4 9
5 5 2 3 1 3 6 2 4 9 5 5 4 4 3 6 7 8 8 11 13 11 11 16 18 17 15 14 15 9 4 5 4 3 5 5 5 5 7 5 7 9 9 10
12 7 2 2 4 5 5 4 3 4 5 6 5 3 6 2 6 7 9 6 11 10 11 16 17 19 15 13 15 10 5 4 4 5 6 7 7 8 8 5 5 6 9 10
11 6 4 1 2 4 1 1 3 1 5 5 5 6 5 4 4 10 10 6 9 11 12 16 18 18 16 15 14 8 6 6 7 3 6 8 8 10 9 7 7 5 4 7
4 3 7 4 4 8 5 5 3 5 7 4 5 8 6 5 9 11 12 15 12 12 17 19 19 21 20 14 12 10 9 10 8 8 4 8 8 9 8 8 4 6 9 9
5 5 4 2 3 7 5 4 5 8 3 5 5 8 8 10 12 12 18 15 14 16 19 20 19 17 19 16 13 12 9 3 10 12 7 8 8 7 7 11 7 7 9 10
2 7 6 8 8 6 5 4 5 2 4 5 4 8 9 13 12 14 16 15 14 17 20 22 20 21 16 14 16 14 12 12 12 11 8 9 9 8 8 7 9 7 8 8
4 4 2 2 1 4 3 5 3 3 4 7 9 11 8 13 12 16 13 11 12 16 20 22 21 17 12 14 16 13 14 14 13 13 11 8 10 10 9 6 5 5 4 6
3 1 2 3 4 5 3 1 5 13 13 14 13 10 11 10 13 13 10 11 13 16 20 16 14 5 8 12 11 10 11 18 13 12 11 9 8 10 10 7 4 5 5 4
3 4 4 5 1 2 5 6 11 11 14 14 15 16 14 11 15 12 9 10 14 17 16 9 8 6 9 13 11 11 10 13 16 13 9 8 8 8 8 8 9 14 11 12
Wind_Direction
196 211 203 196 207 229 249 265 266 324 265 274 264 271 264 268 260 246 239 259 260 251 255 240 224 223 223 208 201 197 193 196 187 188 183 184 189 188 191 191 185 185 180 177
206 235 216 217 214 225 234 245 251 265 252 252 286 281 270 249 262 248 249 247 253 254 256 244 225 224 216 207 201 196 199 194 191 195 196 191 194 196 194 194 189 187 183 179
214 231 205 210 217 220 226 236 245 246 257 244 270 280 281 261 235 251 241 246 253 247 265 300 18 277 237 214 206 200 200 196 194 197 195 199 187 182 187 196 189 187 185 185
231 234 236 212 231 207 246 219 234 240 245 252 190 276 275 263 239 217 233 223 276 35 1 345 7 342 334 290 243 214 206 201 201 195 191 193 197 190 198 196 193 185 186 187
235 231 219 229 235 215 250 221 236 226 232 245 229 255 65 90 260 211 224 79 42 25 9 343 347 336 308 306 288 231 216 207 204 199 198 199 203 208 203 198 199 196 191 189
246 246 237 237 242 229 248 249 254 236 221 225 235 218 274 243 250 163 52 42 37 21 9 347 340 352 344 308 305 293 221 209 208 206 204 204 206 206 204 198 196 196 190 188
234 242 240 244 256 248 228 230 237 227 216 226 186 203 242 333 26 115 106 43 8 355 11 358 353 351 348 353 326 305 284 223 206 209 209 209 210 209 206 201 201 194 194 190
220 226 225 211 220 229 219 221 235 234 226 235 162 204 222 100 76 75 94 100 342 359 355 338 334 328 331 331 333 316 293 278 217 211 212 210 212 212 213 209 199 203 201 203
336 214 8 36 326 224 222 233 227 246 253 242 195 328 55 70 74 58 26 20 10 354 346 331 327 329 322 328 325 325 312 284 254 219 218 215 212 214 214 213 209 203 202 196
138 292 52 324 330 49 285 18 209 239 225 244 203 207 173 131 95 55 35 20 355 341 342 337 332 320 316 313 312 316 313 309 270 235 221 222 216 215 213 212 211 204 191 189
249 140 50 47 344 355 39 43 345 237 36 314 30 254 155 138 151 89 67 18 342 332 317 314 314 312 304 302 313 317 322 318 307 253 223 223 220 216 209 209 205 192 178 174
203 195 214 173 212 258 184 122 135 270 291 109 135 293 201 131 111 349 3 358 347 331 318 316 305 303 307 308 319 327 322 313 306 292 248 219 215 210 204 206 185 169 172 168
16 259 199 195 152 230 152 188 159 115 35 203 147 246 263 128 300 349 349 359 6 345 329 323 319 317 298 305 304 297 309 309 301 284 263 248 199 196 192 177 174 179 176 176
176 296 343 6 64 6 313 203 182 152 175 206 212 268 248 334 331 342 351 351 339 328 307 306 311 315 318 306 293 280 277 283 301 289 266 226 211 214 182 171 182 177 180 179
130 297 346 262 246 246 272 302 252 216 230 213 217 226 282 305 306 320 313 334 333 322 309 305 306 314 317 313 301 285 280 296 329 333 329 129 71 56 108 194 181 184 188 183
44 290 210 268 244 236 242 240 237 239 242 246 271 281 98 240 289 316 317 325 313 304 309 306 300 310 313 320 308 272 251 258 6 58 35 321 78 70 65 69 294 181 132 143
273 206 68 261 89 197 283 235 237 241 234 217 235 251 7 325 315 299 312 294 293 300 303 303 298 305 309 313 313 282 230 214 156 165 136 165 25 129 135 117 98 73 78 147
233 248 226 269 100 255 249 269 224 235 242 203 250 238 218 242 261 282 261 277 292 286 292 305 300 297 301 305 302 282 208 190 155 149 118 103 94 67 71 100 105 120 109 87
210 211 292 172 220 287 274 234 232 194 263 197 214 264 269 315 325 293 253 235 239 260 282 296 294 291 293 290 292 263 188 133 131 133 106 90 98 87 64 52 93 94 101 114
180 199 154 74 218 254 326 72 89 54 287 187 191 247 266 65 322 276 273 253 268 278 288 295 292 286 281 281 283 229 179 144 136 136 121 108 99 93 85 61 42 43 86 95
153 177 216 196 235 283 226 159 127 94 242 212 200 239 253 207 217 265 290 290 276 274 288 292 293 284 276 262 263 221 181 166 136 115 121 107 98 103 107 96 68 85 77 70
162 156 203 177 218 277 170 66 164 217 252 233 227 244 257 253 270 268 280 287 288 290 298 291 291 272 267 251 237 206 171 164 135 127 138 113 113 108 112 109 100 83 94 90
233 186 181 177 212 232 229 215 246 12 257 291 261 268 265 274 270 278 282 287 291 301 306 303 291 277 257 221 223 187 160 140 127 123 114 109 106 96 92 99 110 111 110 118
236 169 226 125 236 239 270 271 272 297 272 285 280 281 285 280 294 293 287 290 300 308 310 304 293 268 233 208 202 159 142 131 131 119 116 118 115 108 95 87 88 102 114 123
203 103 215 269 299 317 349 342 356 332 326 316 302 276 272 279 288 295 284 293 303 304 313 303 297 182 127 102 105 115 136 131 123 122 120 120 113 105 95 74 85 96 68 92
190 197 160 227 50 283 275 328 316 312 311 299 291 294 288 281 283 285 273 300 299 305 306 314 321 112 108 105 97 95 112 122 123 118 118 117 112 99 99 101 81 62 81 86